Weather in Dyrestuy

Russia / Republic of Buryatia     50°39′14″N   106°03′55″E
temp.,
°C
wind,
m/s
gust,
m/s
humid.,
%
clouds,
%
prec.,
mm/h
press.,
hPa
HPBL,
m
19 september, sun
sun1923:00+10ene11767 0.0 101310
02:00+10se0178100 0.0 101310
05:00+8ssw0181100 0.0 101310
08:00+12s117485 0.0 101326
11:00+16s226014 0.0 1012598
14:00+20ssw234965 0.0 1010963
17:00+21s22435 0.0 10091298
20:00+13sse11732 0.2 101011
20 september, mon
mon2023:00+13ssw22755 0.3 101011
02:00+11ssw22805 0.3 100910
05:00+9s22863 0.4 100910
08:00+11s22830 0.4 100966
11:00+16s24660 0.0 1007586
14:00+21s56475 0.0 10031105
17:00+21s56460 0.0 10021202
20:00+14sse22724 0.1 100211
21 september, tue
tue2123:00+12s22785 0.3 100211
02:00+10nne46936 2.7 1005135
05:00+8nne3687100 0.4 1008507
08:00+7ene359166 5.8 1009420
11:00+8n3473100 0.2 1010699
14:00+7n3469100 0.3 1011792
17:00+7nne347194 0.1 1012644
20:00+4nne11845 0.1 101410
22 september, wed
wed2223:00+3ne22865 0.0 101410
02:00+1ne11905 0.0 101510
05:00+1ne229071 0.0 101412
08:00+3nne2384100 0.0 1014123
11:00+6ne4468100 0.0 1013406
14:00+9ne345392 0.0 1012937
17:00+7n797275 0.0 1014652
20:00+4nnw4779100 0.0 1018507
23 september, thu
thu2323:00+4nw3569100 0.0 1020467
02:00+2nw2480100 0.1 1022369
05:00+1wnw129899 0.3 1023112
08:00+1wsw1295100 0.3 1024232
11:00+4sw227160 0.0 1023697
14:00+8wsw125137 0.0 10211277
17:00+9se11468 0.0 10201205
20:00+4e226578 0.0 102211